FW4383 Weather Reports


Display with metric or nautical units.
time (UTC)temp
F
wind
direction
speed
MPH
gust
MPH
rain 1hr
in
rain 24hr
in
rain mn
in
humidity
%
barometer
mb
20260507051610 60 245 6.0 14.0 0.00 0.00 0.00 75 1021.6
20260507050037 60 247 6.0 13.0 0.00 0.00 0.00 74 1021.5
20260507041532 62 247 6.0 14.0 0.00 0.00 0.00 69 1020.7
20260507034537 62 249 8.0 18.0 0.00 0.00 0.00 67 1020.6
20260507033150 63 249 7.0 17.0 0.00 0.00 0.00 64 1020.4
20260507031535 64 249 7.0 16.0 0.00 0.00 0.00 61 1020.2
20260507030037 65 245 8.0 17.0 0.00 0.00 0.00 58 1020.1
20260507023036 66 253 9.0 19.0 0.00 0.00 0.00 55 1019.9
20260507021534 67 250 10.0 18.0 0.00 0.00 0.00 55 1019.9
20260507020035 67 258 10.0 18.0 0.00 0.00 0.00 55 1019.9
20260507014607 68 258 9.0 18.0 0.00 0.00 0.00 55 1019.9
20260507013036 68 255 10.0 21.0 0.00 0.00 0.00 54 1020.0
20260507011608 69 255 10.0 23.0 0.00 0.00 0.00 54 1020.1
20260507010032 69 276 9.0 18.0 0.00 0.00 0.00 54 1020.0
20260507004536 67 272 9.0 20.0 0.00 0.00 0.00 56 1020.0
20260507003035 67 270 10.0 24.0 0.00 0.00 0.00 56 1020.0
20260507001532 67 265 8.0 18.0 0.00 0.00 0.00 56 1020.0
20260507000036 66 273 9.0 21.0 0.00 0.00 0.00 56 1019.8
20260506234537 66 275 10.0 25.0 0.00 0.00 0.00 57 1019.7
20260506231531 67 265 7.0 22.0 0.00 0.00 0.00 57 1019.7
20260506224532 67 250 6.0 15.0 0.00 0.00 0.00 55 1020.0
20260506223110 69 254 8.0 18.0 0.00 0.00 0.00 54 1020.0
20260506221536 69 246 8.0 18.0 0.00 0.00 0.00 54 1020.0
20260506220031 70 252 11.0 22.0 0.00 0.00 0.00 55 1019.8
20260506214538 69 247 9.0 22.0 0.00 0.00 0.00 55 1020.0
20260506213038 68 252 11.0 24.0 0.00 0.00 0.00 55 1020.1
20260506211533 69 267 13.0 22.0 0.00 0.00 0.00 54 1020.1
20260506204532 69 274 10.0 28.0 0.00 0.00 0.00 54 1020.2
20260506203035 70 290 4.0 18.0 0.00 0.00 0.00 55 1020.6
20260506200032 69 275 4.0 12.0 0.00 0.00 0.00 56 1020.7
20260506194537 69 294 6.0 17.0 0.00 0.00 0.00 58 1020.7
20260506191536 67 270 7.0 17.0 0.00 0.00 0.00 60 1020.8
20260506190037 67 271 6.0 18.0 0.00 0.00 0.00 61 1020.9
20260506183034 66 273 8.0 18.0 0.00 0.00 0.00 64 1021.0
20260506181609 66 287 5.0 13.0 0.00 0.00 0.00 65 1020.8
20260506180035 65 271 5.0 16.0 0.00 0.00 0.00 66 1020.9
20260506171610 64 269 7.0 14.0 0.00 0.00 0.00 67 1020.7
20260506170108 64 265 10.0 22.0 0.00 0.00 0.00 68 1020.4
20260506164534 64 301 10.0 18.0 0.00 0.00 0.00 69 1020.3
20260506161535 62 264 6.0 22.0 0.00 0.00 0.00 72 1021.2
20260506160035 62 259 7.0 21.0 0.00 0.00 0.00 72 1021.1
20260506154534 62 259 8.0 18.0 0.00 0.00 0.00 73 1020.9
20260506151535 62 264 9.0 17.0 0.00 0.00 0.00 71 1020.5
20260506150033 61 261 8.0 20.0 0.00 0.00 0.00 71 1020.4
20260506144535 61 262 8.0 16.0 0.00 0.00 0.00 72 1020.5
20260506143030 60 261 9.0 17.0 0.00 0.00 0.00 72 1020.4
20260506141533 60 253 7.0 16.0 0.00 0.00 0.00 71 1020.3
20260506140037 60 242 7.0 15.0 0.00 0.00 0.00 71 1020.1
20260506134534 60 243 7.0 17.0 0.00 0.00 0.00 71 1020.0
20260506133034 59 246 6.0 13.0 0.00 0.00 0.00 72 1020.0
20260506131533 59 244 5.0 14.0 0.00 0.00 0.00 73 1020.0
20260506130033 59 255 6.0 14.0 0.00 0.00 0.00 73 1019.9
20260506124532 59 243 6.0 15.0 0.00 0.00 0.00 73 1019.8
20260506123033 59 256 4.0 13.0 0.00 0.00 0.00 73 1019.6
20260506121536 59 248 6.0 14.0 0.00 0.00 0.00 73 1019.4
20260506114534 59 255 6.0 14.0 0.00 0.00 0.00 73 1019.2
20260506113035 59 245 5.0 12.0 0.00 0.00 0.00 72 1019.0
20260506111610 60 242 6.0 15.0 0.00 0.00 0.00 71 1018.9
20260506110030 60 238 6.0 18.0 0.00 0.00 0.00 71 1018.7
20260506104609 60 240 8.0 19.0 0.00 0.00 0.00 72 1018.6
20260506103036 59 244 6.0 15.0 0.00 0.00 0.00 73 1018.5
20260506101534 59 254 6.0 15.0 0.00 0.00 0.00 74 1018.5
20260506100058 59 259 5.0 12.0 0.00 0.00 0.00 75 1018.5
20260506093035 59 246 10.0 18.0 0.00 0.00 0.00 75 1018.2
20260506091536 59 248 9.0 20.0 0.00 0.00 0.00 75 1018.2
20260506090037 59 246 8.0 18.0 0.00 0.00 0.00 75 1018.1
20260506084536 59 245 6.0 18.0 0.00 0.00 0.00 75 1018.1
20260506081535 59 249 6.0 15.0 0.00 0.00 0.00 75 1017.9
20260506073038 60 258 7.0 16.0 0.00 0.00 0.00 75 1017.6
20260506061649 60 269 11.0 20.0 0.00 0.00 0.00 75 1017.0
20260506060141 60 267 12.0 20.0 0.00 0.00 0.00 75 1017.0